[[{"header":{"parameterUnit":"m.s-1","parameterCategory":1,"la1":30.2991,"la2":30.254,"lo1":-89.0895,"lo2":-89.0444,"dy":0.0017,"dx":0.0017,"nx":28,"ny":28,"refTime":"2023-10-17T21:00:00:Z","depth":0,"parameterNumber":2,"parameterNumberName":"U-component_of_WINDS"},"data":[0,0,0,0,0,0,0,0,0,0,0,0,0,0,0,0,0,0,0,0,0,0,0,0,0,0,0,0,0,0,0,0,0,0,0,0,0,0,0,0,0,0,0,0,0,0,0,0,0,0,0,0,0,0,0,0,0,0,1.7786,1.7787,0,1.7841,1.7842,1.7842,1.782,1.7818,1.7817,1.7816,1.7868,1.787,1.7873,0,0,0,0,0,0,0,0,0,0,0,0,0,1.7657,1.7659,1.7786,1.7787,1.7788,1.7841,1.7842,1.7843,1.782,1.7818,1.7817,1.7815,1.7867,1.787,1.7873,0,0,0,0,0,0,0,0,0,0,0,0,0,1.7712,1.766,1.7786,1.7783,1.7783,1.7841,1.7842,1.7843,1.782,1.7818,1.7816,1.7815,1.7866,1.787,1.7874,1.7937,0,0,1.7885,1.7887,0,0,0,0,0,0,0,0,1.7709,1.7717,1.7783,1.7783,1.7784,1.7822,1.7815,1.7874,1.7821,1.7806,1.7816,1.7814,1.7854,1.7859,1.7873,1.7939,1.7941,1.7886,1.7888,1.789,1.7891,0,0,0,0,0,0,0,1.7705,1.7715,1.7808,1.7784,1.7784,1.7777,1.7783,1.7826,1.784,1.7807,1.7806,1.7813,1.7854,1.7869,1.7874,1.7942,1.7886,1.7889,1.7892,1.7893,1.8058,1.806,0,0,0,0,0,0,1.7702,1.7712,1.7806,1.781,1.7741,1.7781,1.7787,1.7811,1.784,1.7842,1.7814,1.7811,1.7864,1.787,1.7876,1.7948,1.789,1.7893,1.7896,1.8056,1.8059,1.8061,0,0,0,0,0,0,1.77,1.7711,1.7804,1.776,1.7772,1.7785,1.7812,1.7814,1.7829,1.7845,1.7847,1.7828,1.7862,1.787,1.7921,1.795,1.7895,1.7899,1.8054,1.8057,1.806,1.8096,0,0,0,0,0,0,1.7696,1.771,1.7736,1.7761,1.7774,1.785,1.7814,1.7816,1.7836,1.7833,1.7858,1.7861,1.7861,1.7915,1.7925,1.7954,1.7902,1.8051,1.8055,1.8059,1.8092,1.81,1.8106,0,0,0,0,0,1.7691,1.7743,1.7737,1.7748,1.7806,1.7852,1.7859,1.786,1.7839,1.7863,1.7873,1.786,1.7946,1.7921,1.7931,1.7962,1.8049,1.8054,1.8059,1.8089,1.8098,1.8106,0,0,0,0,0,0,1.772,1.7747,1.774,1.7802,1.7825,1.7848,1.7879,1.787,1.7899,1.7894,1.7893,1.7899,1.7951,1.7962,1.7934,1.8023,1.7994,1.8001,1.8013,1.8022,1.8029,1.8024,1.7905,0,0,0,0,0,1.7734,1.777,1.7791,1.7843,1.7855,1.7865,1.7885,1.7884,1.7907,1.7916,1.793,1.7952,1.7983,1.8004,1.8034,1.8094,1.8098,1.8121,1.8128,1.8134,1.8139,1.8168,1.8177,1.8076,1.8076,1.8076,0,0,1.7762,1.7781,1.7804,1.785,1.7867,1.7902,1.7874,1.7913,1.7938,1.7922,1.797,1.7981,1.8005,1.806,1.8084,1.807,1.8168,1.8139,1.8144,1.8146,1.8174,1.8183,1.8192,1.8079,1.8079,1.8078,0,0,1.7831,1.785,1.7895,1.7913,1.794,1.7946,1.7957,1.7981,1.7988,1.8036,1.8024,1.8053,1.8109,1.8125,1.8141,1.8215,1.8202,1.8225,1.8261,1.8289,1.8297,1.8304,1.8327,1.8336,1.823,1.823,1.823,0,1.7862,1.7916,1.7918,1.7958,1.7977,1.7965,1.8008,1.8025,1.8061,1.8073,1.8058,1.8125,1.8141,1.8197,1.8215,1.823,1.8239,1.822,1.8296,1.8303,1.831,1.8332,1.8341,1.8233,1.8232,1.8232,1.8232,0,1.7951,1.7989,1.8021,1.8056,1.8079,1.812,1.8127,1.815,1.8146,1.8153,1.8201,1.8219,1.8252,1.8266,1.8263,1.8321,1.8311,1.8297,1.8267,1.8322,1.8342,1.8351,1.8236,1.8235,1.8234,1.8234,0,0,1.8039,1.8073,1.8085,1.8099,1.8128,1.8156,1.8196,1.8228,1.8246,1.8271,1.8302,1.8349,1.8334,1.8352,1.8351,1.8376,1.8429,1.8357,1.8358,1.8367,1.8491,1.85,1.851,1.8422,1.8424,1.8425,1.8488,0,1.8107,1.8178,1.818,1.8244,1.8277,1.8265,1.8299,1.8319,1.8327,1.8354,1.8362,1.8394,1.8374,1.8384,1.8409,1.8418,1.8454,1.8414,1.8448,1.845,1.844,1.8522,1.8532,1.859,1.8496,1.8498,1.8499,0,1.8196,1.8224,1.8291,1.8312,1.8326,1.8357,1.8385,1.8413,1.8435,1.8438,1.8457,1.8452,1.849,1.8461,1.8512,1.8485,1.8499,1.8505,1.8507,1.8508,1.8476,1.8522,1.8609,1.8617,1.8512,1.8511,1.851,0,1.8249,1.8303,1.8349,1.8362,1.839,1.8411,1.8423,1.8443,1.8461,1.8486,1.8497,1.8526,1.8541,1.8562,1.8564,1.8544,1.8614,1.8586,1.8615,1.8615,1.8628,1.8627,1.8716,1.8643,1.8643,1.8643,1.8642,0,1.8323,1.8364,1.8373,1.8401,1.8445,1.8447,1.849,1.85,1.8518,1.8546,1.8539,1.8565,1.8567,1.8593,1.8595,1.8634,1.8642,1.8644,1.8643,1.8643,1.8642,1.865,1.8645,1.8645,1.8644,1.8644,1.8644,0,1.8389,1.8397,1.8446,1.8468,1.8474,1.8505,1.8523,1.8548,1.8555,1.8591,1.8599,1.8609,1.864,1.8644,1.868,1.8681,1.8728,1.8724,1.872,1.8719,1.8746,1.8743,1.8842,1.8854,1.8775,1.8776,1.8777,0,1.8434,1.8465,1.849,1.8509,1.8522,1.8553,1.8571,1.8574,1.8593,1.8619,1.8641,1.8671,1.8695,1.8744,1.8753,1.878,1.8775,1.8808,1.8779,1.8777,1.8772,1.8769,1.877,1.8813,1.8813,1.8814,1.8815,0,1.8513,1.8515,1.8543,1.8572,1.8595,1.8617,1.8639,1.8654,1.8659,1.8681,1.8713,1.8731,1.8767,1.8796,1.8822,1.8833,1.8823,1.8824,1.8832,1.883,1.8825,1.8825,1.8732,1.8821,1.8821,1.882,1.882,1.882,1.8567,1.8593,1.8614,1.8645,1.8661,1.8681,1.8706,1.8715,1.8742,1.8772,1.8772,1.8806,1.8824,1.8858,1.8871,1.8896,1.8884,1.8896,1.8899,1.8901,1.8902,1.8824,1.8901,1.8901,1.89,1.89,1.89,0,1.8643,1.8656,1.8684,1.8714,1.8737,1.8729,1.8752,1.8771,1.8801,1.882,1.8844,1.8878,1.8906,1.8917,1.8944,1.8961,1.8958,1.8968,1.8965,1.8967,1.8912,1.8901,1.897,1.897,1.897,1.897,1.897,1.897,1.8684,1.8727,1.8731,1.878,1.8793,1.8826,1.884,1.8857,1.8871,1.8911,1.8934,1.8942,1.8957,1.8984,1.9008,1.901,1.9019,1.903,1.9031,1.8978,1.8971,1.8964,1.8954,1.9033,1.9033,1.9083,1.9084,1.9084]},{"header":{"parameterUnit":"m.s-1","parameterCategory":1,"la1":30.2991,"la2":30.254,"lo1":-89.0895,"lo2":-89.0444,"dy":0.0017,"dx":0.0017,"nx":28,"ny":28,"refTime":"2023-10-17T21:00:00:Z","depth":0,"parameterNumber":3,"parameterNumberName":"V-component_of_WINDS"},"data":[0,0,0,0,0,0,0,0,0,0,0,0,0,0,0,0,0,0,0,0,0,0,0,0,0,0,0,0,0,0,0,0,0,0,0,0,0,0,0,0,0,0,0,0,0,0,0,0,0,0,0,0,0,0,0,0,0,0,1.3902,1.3903,0,1.397,1.3971,1.3971,1.3945,1.3944,1.3942,1.3941,1.4011,1.4014,1.4018,0,0,0,0,0,0,0,0,0,0,0,0,0,1.3748,1.3751,1.3902,1.3903,1.3903,1.397,1.3971,1.3972,1.3945,1.3944,1.3942,1.394,1.401,1.4014,1.4018,0,0,0,0,0,0,0,0,0,0,0,0,0,1.3816,1.3752,1.3902,1.3898,1.3899,1.397,1.3971,1.3972,1.3946,1.3944,1.3941,1.3939,1.4009,1.4014,1.4019,1.4097,0,0,1.4034,1.4036,0,0,0,0,0,0,0,0,1.3812,1.3821,1.3898,1.3899,1.3899,1.3947,1.3942,1.4014,1.3946,1.3928,1.3941,1.3938,1.3992,1.3998,1.4016,1.41,1.4103,1.4034,1.4037,1.404,1.4041,0,0,0,0,0,0,0,1.3807,1.3818,1.3929,1.3899,1.39,1.3893,1.39,1.3956,1.3972,1.3929,1.3928,1.3936,1.3991,1.4011,1.4017,1.4104,1.4034,1.4039,1.4042,1.4044,1.4253,1.4256,0,0,0,0,0,0,1.3802,1.3815,1.3927,1.3931,1.3849,1.3898,1.3906,1.3934,1.3972,1.3975,1.3938,1.3935,1.4004,1.4012,1.402,1.4112,1.4039,1.4044,1.4047,1.4251,1.4254,1.4256,0,0,0,0,0,0,1.3799,1.3813,1.3924,1.3872,1.3886,1.3903,1.3935,1.3936,1.3956,1.3978,1.3981,1.3955,1.4002,1.4013,1.4077,1.4114,1.4046,1.4051,1.4248,1.4252,1.4255,1.4298,0,0,0,0,0,0,1.3795,1.3812,1.3842,1.3873,1.3889,1.3981,1.3937,1.3939,1.3965,1.3961,1.3995,1.3998,1.4001,1.407,1.4082,1.412,1.4055,1.4244,1.4249,1.4254,1.4294,1.4303,1.4311,0,0,0,0,0,1.379,1.3852,1.3844,1.3857,1.3927,1.3983,1.3992,1.3994,1.3968,1.3998,1.4012,1.3997,1.4108,1.4077,1.409,1.413,1.4242,1.4248,1.4254,1.429,1.4301,1.4311,0,0,0,0,0,0,1.3826,1.3856,1.3847,1.3922,1.395,1.3978,1.4017,1.4006,1.4043,1.4037,1.4038,1.4046,1.4112,1.4128,1.4092,1.4206,1.4171,1.418,1.4194,1.4205,1.4214,1.4208,1.4059,0,0,0,0,0,1.3843,1.3885,1.391,1.3973,1.3987,1.4,1.4024,1.4023,1.4052,1.4064,1.4083,1.4112,1.4152,1.418,1.4219,1.4296,1.4302,1.433,1.4338,1.4346,1.4353,1.4392,1.4405,1.4275,1.4275,1.4275,0,0,1.3878,1.3899,1.3927,1.3981,1.4002,1.4046,1.401,1.4058,1.4091,1.4071,1.4133,1.4147,1.418,1.425,1.4282,1.4265,1.439,1.4353,1.4358,1.4362,1.44,1.4412,1.4423,1.4279,1.4279,1.4278,0,0,1.3964,1.3985,1.4039,1.4061,1.4093,1.4101,1.4114,1.4143,1.4152,1.4213,1.4199,1.4237,1.4309,1.4332,1.4353,1.4444,1.4432,1.4457,1.4503,1.4542,1.4552,1.4561,1.4592,1.4603,1.4465,1.4465,1.4465,0,1.4003,1.4068,1.4068,1.4117,1.4141,1.4124,1.4178,1.42,1.4244,1.426,1.424,1.4328,1.4349,1.4423,1.4445,1.4463,1.4477,1.4453,1.455,1.4559,1.4568,1.4597,1.4609,1.4468,1.4467,1.4467,1.4467,0,1.4114,1.416,1.42,1.4241,1.4269,1.4321,1.4328,1.4356,1.4352,1.4361,1.4423,1.4446,1.4489,1.4507,1.4504,1.458,1.4568,1.455,1.4514,1.4583,1.4611,1.4622,1.4472,1.4471,1.447,1.4469,0,0,1.4227,1.4265,1.428,1.4297,1.4331,1.4366,1.4416,1.4457,1.448,1.4511,1.4552,1.4612,1.4594,1.4617,1.4617,1.4651,1.4719,1.4627,1.4628,1.4642,1.4803,1.4816,1.4829,1.4711,1.4713,1.4715,1.48,0,1.4314,1.4401,1.4401,1.4481,1.4522,1.4506,1.4549,1.4574,1.4583,1.4619,1.4629,1.4671,1.4645,1.4659,1.4692,1.4704,1.4751,1.4698,1.4748,1.475,1.474,1.4844,1.4859,1.4938,1.4811,1.4812,1.4814,0,1.4428,1.446,1.4544,1.4569,1.4586,1.4625,1.4662,1.4696,1.4724,1.4728,1.4753,1.4747,1.4796,1.4759,1.4827,1.4791,1.4811,1.482,1.4823,1.4827,1.4786,1.485,1.4963,1.4974,1.4831,1.483,1.4829,0,1.4499,1.4564,1.4621,1.4637,1.4669,1.4696,1.4711,1.4736,1.4759,1.4791,1.4806,1.4844,1.4864,1.4893,1.4896,1.4869,1.4964,1.4928,1.4968,1.4968,1.4988,1.4987,1.5105,1.5003,1.5003,1.5003,1.5003,0,1.4596,1.4647,1.4653,1.4689,1.4746,1.4745,1.4801,1.4813,1.4835,1.4872,1.4861,1.4896,1.4899,1.4934,1.4937,1.4992,1.5002,1.5006,1.5006,1.5006,1.5005,1.5019,1.5013,1.5006,1.5005,1.5005,1.5004,0,1.4685,1.4691,1.4753,1.4777,1.4784,1.4825,1.4845,1.4879,1.4886,1.4933,1.4944,1.4956,1.4997,1.5003,1.5052,1.5054,1.5119,1.5114,1.5109,1.5108,1.5148,1.5143,1.5278,1.5295,1.5183,1.5184,1.5185,0,1.4746,1.4785,1.4812,1.4836,1.4851,1.489,1.4914,1.4914,1.4939,1.4972,1.5001,1.5041,1.5073,1.5139,1.5152,1.5189,1.5184,1.5228,1.5189,1.5188,1.5183,1.518,1.5183,1.5236,1.5237,1.5238,1.5239,0,1.4853,1.4853,1.4888,1.4923,1.4951,1.4979,1.5005,1.5025,1.5029,1.5058,1.5099,1.5124,1.5172,1.5212,1.5247,1.5262,1.5251,1.5251,1.5262,1.5262,1.5258,1.5259,1.5129,1.5248,1.5247,1.5246,1.5246,1.5245,1.4929,1.4962,1.4986,1.5024,1.5043,1.5067,1.5099,1.511,1.5145,1.5184,1.5182,1.5227,1.5251,1.5298,1.5315,1.535,1.5335,1.5352,1.5356,1.5359,1.5362,1.5253,1.5356,1.5356,1.5356,1.5356,1.5356,0,1.5034,1.5048,1.5083,1.5119,1.5149,1.5135,1.5163,1.5188,1.5228,1.5252,1.5282,1.5329,1.5367,1.5382,1.5418,1.5443,1.5439,1.5452,1.545,1.5453,1.5374,1.536,1.5455,1.5455,1.5455,1.5455,1.5455,1.5455,1.5092,1.5146,1.515,1.5213,1.5227,1.527,1.5287,1.5309,1.5327,1.538,1.541,1.5419,1.5439,1.5477,1.551,1.5513,1.5527,1.5542,1.5544,1.5469,1.5459,1.545,1.5436,1.5546,1.5546,1.5619,1.562,1.5621]}]]